Time,TemperatureF,DewpointF,PressureIn,WindDirection,WindDirectionDegrees,WindSpeedMPH,WindSpeedGustMPH,Humidity,HourlyPrecipIn,Conditions,Clouds,dailyrainin,SoftwareType,DateUTC
2013-01-25 00:00:00,22.5,10.4,30.29,ESE,120,7.0,12.0,59,0.00,,---,0.00,VWS V14.01,2013-01-25 06:00:00,
2013-01-25 00:03:00,22.2,10.1,30.33,SE,142,5.0,13.0,59,0.00,,---,0.00,VWS V14.01,2013-01-25 06:03:00,
2013-01-25 00:08:00,22.2,10.1,30.32,SE,135,7.0,13.0,59,0.00,,---,0.00,VWS V14.01,2013-01-25 06:08:00,
2013-01-25 00:13:00,22.2,10.1,30.33,SSE,148,4.0,13.0,59,0.00,,---,0.00,VWS V14.01,2013-01-25 06:13:00,
2013-01-25 00:18:00,22.2,10.1,30.33,SE,131,8.0,13.0,59,0.00,,---,0.00,VWS V14.01,2013-01-25 06:18:00,
2013-01-25 00:23:00,22.2,10.1,30.33,ESE,116,4.0,13.0,59,0.00,,---,0.00,VWS V14.01,2013-01-25 06:23:00,
2013-01-25 00:28:00,22.2,10.1,30.32,SE,126,5.0,13.0,59,0.00,,---,0.00,VWS V14.01,2013-01-25 06:28:00,
2013-01-25 00:30:00,22.7,10.2,30.28,ESE,118,5.0,14.0,58,0.00,,---,0.00,VWS V14.01,2013-01-25 06:30:00,
2013-01-25 00:33:00,22.2,10.1,30.32,SE,125,7.0,10.0,59,0.00,,---,0.00,VWS V14.01,2013-01-25 06:33:00,
2013-01-25 00:38:00,22.3,10.5,30.32,SE,139,1.0,10.0,60,0.00,,---,0.00,VWS V14.01,2013-01-25 06:38:00,
2013-01-25 00:43:00,22.4,10.3,30.31,SE,140,0.0,12.0,59,0.00,,---,0.00,VWS V14.01,2013-01-25 06:43:00,
2013-01-25 00:48:00,22.4,10.3,30.31,SE,136,6.0,12.0,59,0.00,,---,0.00,VWS V14.01,2013-01-25 06:48:00,
2013-01-25 00:53:00,22.4,10.3,30.30,SE,124,2.0,12.0,59,0.00,,---,0.00,VWS V14.01,2013-01-25 06:53:00,
2013-01-25 00:58:00,22.5,10.0,30.29,SE,144,8.0,12.0,58,0.00,,---,0.00,VWS V14.01,2013-01-25 06:58:00,
2013-01-25 01:00:00,22.8,9.9,30.26,SSE,159,8.0,14.0,57,0.00,,---,0.00,VWS V14.01,2013-01-25 07:00:00,
2013-01-25 01:03:00,22.5,10.4,30.29,SE,139,7.0,11.0,59,0.00,,---,0.00,VWS V14.01,2013-01-25 07:03:00,
2013-01-25 01:08:00,22.5,10.4,30.29,SE,131,8.0,11.0,59,0.00,,---,0.00,VWS V14.01,2013-01-25 07:08:00,
2013-01-25 01:13:00,22.6,10.1,30.29,SSE,152,5.0,11.0,58,0.00,,---,0.00,VWS V14.01,2013-01-25 07:13:00,
2013-01-25 01:18:00,22.6,10.1,30.29,ESE,120,8.0,14.0,58,0.00,,---,0.00,VWS V14.01,2013-01-25 07:18:00,
2013-01-25 01:23:00,22.6,10.1,30.29,SE,144,0.0,14.0,58,0.00,,---,0.00,VWS V14.01,2013-01-25 07:23:00,
2013-01-25 01:28:00,22.7,10.2,30.28,SSE,148,5.0,14.0,58,0.00,,---,0.00,VWS V14.01,2013-01-25 07:28:00,
2013-01-25 01:30:00,22.9,10.4,30.25,SE,140,3.0,16.0,58,0.00,,---,0.00,VWS V14.01,2013-01-25 07:30:00,
2013-01-25 01:33:00,22.7,10.2,30.28,SE,124,9.0,10.0,58,0.00,,---,0.00,VWS V14.01,2013-01-25 07:33:00,
2013-01-25 01:38:00,22.7,10.2,30.28,SE,140,7.0,12.0,58,0.00,,---,0.00,VWS V14.01,2013-01-25 07:38:00,
2013-01-25 01:43:00,22.7,10.2,30.27,SE,128,6.0,12.0,58,0.00,,---,0.00,VWS V14.01,2013-01-25 07:43:00,
2013-01-25 01:48:00,22.8,10.2,30.27,East,99,8.0,12.0,58,0.00,,---,0.00,VWS V14.01,2013-01-25 07:48:00,
2013-01-25 01:53:00,22.8,9.9,30.27,SE,129,10.0,12.0,57,0.00,,---,0.00,VWS V14.01,2013-01-25 07:53:00,
2013-01-25 01:58:00,22.7,9.8,30.26,SE,138,7.0,14.0,57,0.00,,---,0.00,VWS V14.01,2013-01-25 07:58:00,
2013-01-25 02:00:00,22.8,9.9,30.24,SE,129,9.0,14.0,57,0.00,,---,0.00,VWS V14.01,2013-01-25 08:00:00,
2013-01-25 02:03:00,22.8,10.2,30.27,ESE,123,4.0,13.0,58,0.00,,---,0.00,VWS V14.01,2013-01-25 08:03:00,
2013-01-25 02:08:00,22.8,10.2,30.26,ESE,110,4.0,13.0,58,0.00,,---,0.00,VWS V14.01,2013-01-25 08:08:00,
2013-01-25 02:13:00,22.9,10.3,30.26,SE,131,8.0,13.0,58,0.00,,---,0.00,VWS V14.01,2013-01-25 08:13:00,
2013-01-25 02:18:00,22.9,10.0,30.26,SE,133,7.0,16.0,57,0.00,,---,0.00,VWS V14.01,2013-01-25 08:18:00,
2013-01-25 02:23:00,22.9,10.0,30.26,SE,138,2.0,16.0,57,0.00,,---,0.00,VWS V14.01,2013-01-25 08:23:00,
2013-01-25 02:28:00,22.9,10.0,30.25,SE,143,5.0,16.0,57,0.00,,---,0.00,VWS V14.01,2013-01-25 08:28:00,
2013-01-25 02:30:00,22.6,11.9,30.25,SE,132,4.0,11.0,63,0.00,,---,0.00,VWS V14.01,2013-01-25 08:30:00,
2013-01-25 02:33:00,22.9,10.0,30.25,SE,130,5.0,10.0,57,0.00,,---,0.00,VWS V14.01,2013-01-25 08:33:00,
2013-01-25 02:38:00,22.9,10.0,30.25,SSE,148,8.0,11.0,57,0.00,,---,0.00,VWS V14.01,2013-01-25 08:38:00,
2013-01-25 02:43:00,22.9,10.0,30.26,SE,142,2.0,14.0,57,0.00,,---,0.00,VWS V14.01,2013-01-25 08:43:00,
2013-01-25 02:48:00,22.9,10.0,30.26,SSE,157,5.0,14.0,57,0.00,,---,0.00,VWS V14.01,2013-01-25 08:48:00,
2013-01-25 02:53:00,22.9,10.0,30.25,SE,136,6.0,14.0,57,0.00,,---,0.00,VWS V14.01,2013-01-25 08:53:00,
2013-01-25 02:58:00,22.9,10.0,30.24,SE,138,6.0,14.0,57,0.00,,---,0.00,VWS V14.01,2013-01-25 08:58:00,
2013-01-25 03:00:00,21.9,13.0,30.23,South,179,5.0,9.0,68,0.00,,---,0.00,VWS V14.01,2013-01-25 09:00:00,
2013-01-25 03:03:00,22.9,10.0,30.24,SSE,153,7.0,11.0,57,0.00,,---,0.00,VWS V14.01,2013-01-25 09:03:00,
2013-01-25 03:08:00,22.8,10.2,30.25,SSE,160,5.0,11.0,58,0.00,,---,0.00,VWS V14.01,2013-01-25 09:08:00,
2013-01-25 03:13:00,22.8,10.2,30.25,SE,130,1.0,11.0,58,0.00,,---,0.00,VWS V14.01,2013-01-25 09:13:00,
2013-01-25 03:18:00,22.8,10.6,30.25,SE,140,0.0,11.0,59,0.00,,---,0.00,VWS V14.01,2013-01-25 09:18:00,
2013-01-25 03:23:00,22.7,11.3,30.25,SE,138,2.0,11.0,61,0.00,,---,0.00,VWS V14.01,2013-01-25 09:23:00,
2013-01-25 03:28:00,22.6,11.9,30.25,SE,140,5.0,11.0,63,0.00,,---,0.00,VWS V14.01,2013-01-25 09:28:00,
2013-01-25 03:30:00,21.6,13.7,30.20,SE,140,6.0,9.0,71,0.00,,---,0.00,VWS V14.01,2013-01-25 09:30:00,
2013-01-25 03:33:00,22.4,11.7,30.24,SE,146,7.0,7.0,63,0.00,,---,0.00,VWS V14.01,2013-01-25 09:33:00,
2013-01-25 03:38:00,22.3,12.0,30.24,ESE,110,4.0,9.0,64,0.00,,---,0.00,VWS V14.01,2013-01-25 09:38:00,
2013-01-25 03:43:00,22.2,12.2,30.24,SE,144,5.0,9.0,65,0.00,,---,0.00,VWS V14.01,2013-01-25 09:43:00,
2013-01-25 03:49:00,22.1,12.5,30.23,SSE,147,5.0,9.0,66,0.00,,---,0.00,VWS V14.01,2013-01-25 09:49:00,
2013-01-25 03:54:00,22.0,13.1,30.23,SE,139,2.0,9.0,68,0.00,,---,0.00,VWS V14.01,2013-01-25 09:54:00,
2013-01-25 03:59:00,21.9,13.0,30.23,SE,144,6.0,9.0,68,0.00,,---,0.00,VWS V14.01,2013-01-25 09:59:00,
2013-01-25 04:00:00,21.6,14.3,30.18,SSE,160,8.0,14.0,73,0.00,,---,0.00,VWS V14.01,2013-01-25 10:00:00,
2013-01-25 04:04:00,21.8,13.2,30.23,SE,132,7.0,9.0,69,0.00,,---,0.00,VWS V14.01,2013-01-25 10:04:00,
2013-01-25 04:09:00,21.8,13.2,30.24,SE,138,2.0,9.0,69,0.00,,---,0.00,VWS V14.01,2013-01-25 10:09:00,
2013-01-25 04:14:00,21.7,13.4,30.23,ESE,109,4.0,9.0,70,0.00,,---,0.00,VWS V14.01,2013-01-25 10:14:00,
2013-01-25 04:18:00,21.7,13.8,30.22,SE,145,1.0,9.0,71,0.00,,---,0.00,VWS V14.01,2013-01-25 10:18:00,
2013-01-25 04:23:00,21.7,13.8,30.21,SSE,148,8.0,9.0,71,0.00,,---,0.00,VWS V14.01,2013-01-25 10:23:00,
2013-01-25 04:28:00,21.7,13.8,30.20,ESE,122,4.0,9.0,71,0.00,,---,0.00,VWS V14.01,2013-01-25 10:28:00,
2013-01-25 04:30:00,21.5,14.5,30.18,South,182,3.0,10.0,74,0.00,,---,0.00,VWS V14.01,2013-01-25 10:30:00,
2013-01-25 04:33:00,21.6,13.7,30.20,SE,138,4.0,10.0,71,0.00,,---,0.00,VWS V14.01,2013-01-25 10:33:00,
2013-01-25 04:38:00,21.6,14.0,30.19,SE,144,5.0,10.0,72,0.00,,---,0.00,VWS V14.01,2013-01-25 10:38:00,
2013-01-25 04:43:00,21.6,14.0,30.19,SE,138,4.0,11.0,72,0.00,,---,0.00,VWS V14.01,2013-01-25 10:43:00,
2013-01-25 04:48:00,21.6,14.3,30.18,SE,137,7.0,14.0,73,0.00,,---,0.00,VWS V14.01,2013-01-25 10:48:00,
2013-01-25 04:53:00,21.6,14.3,30.19,SE,143,6.0,14.0,73,0.00,,---,0.00,VWS V14.01,2013-01-25 10:53:00,
2013-01-25 04:58:00,21.5,14.2,30.18,SE,135,10.0,14.0,73,0.00,,---,0.00,VWS V14.01,2013-01-25 10:58:00,
2013-01-25 05:00:00,21.6,14.9,30.20,South,174,0.0,10.0,75,0.00,,---,0.00,VWS V14.01,2013-01-25 11:00:00,
2013-01-25 05:03:00,21.5,14.2,30.19,SE,144,5.0,10.0,73,0.00,,---,0.00,VWS V14.01,2013-01-25 11:03:00,
2013-01-25 05:08:00,21.5,14.5,30.18,SE,125,9.0,10.0,74,0.00,,---,0.00,VWS V14.01,2013-01-25 11:08:00,
2013-01-25 05:13:00,21.5,14.5,30.18,SSE,148,4.0,10.0,74,0.00,,---,0.00,VWS V14.01,2013-01-25 11:13:00,
2013-01-25 05:18:00,21.5,14.5,30.19,SE,132,5.0,10.0,74,0.00,,---,0.00,VWS V14.01,2013-01-25 11:18:00,
2013-01-25 05:23:00,21.5,14.5,30.18,SSE,158,2.0,10.0,74,0.00,,---,0.00,VWS V14.01,2013-01-25 11:23:00,
2013-01-25 05:28:00,21.5,14.5,30.18,South,182,2.0,10.0,74,0.00,,---,0.00,VWS V14.01,2013-01-25 11:28:00,
2013-01-25 05:30:00,21.8,14.8,30.19,South,174,2.0,6.0,74,0.00,,---,0.00,VWS V14.01,2013-01-25 11:30:00,
2013-01-25 05:33:00,21.5,14.5,30.18,SSE,150,2.0,10.0,74,0.00,,---,0.00,VWS V14.01,2013-01-25 11:33:00,
2013-01-25 05:38:00,21.6,14.9,30.18,SSE,166,5.0,10.0,75,0.00,,---,0.00,VWS V14.01,2013-01-25 11:38:00,
2013-01-25 05:43:00,21.5,14.8,30.18,South,180,2.0,10.0,75,0.00,,---,0.00,VWS V14.01,2013-01-25 11:43:00,
2013-01-25 05:48:00,21.5,14.8,30.19,South,178,4.0,10.0,75,0.00,,---,0.00,VWS V14.01,2013-01-25 11:48:00,
2013-01-25 05:53:00,21.6,14.9,30.20,South,174,1.0,10.0,75,0.00,,---,0.00,VWS V14.01,2013-01-25 11:53:00,
2013-01-25 05:58:00,21.6,14.9,30.20,South,174,1.0,10.0,75,0.00,,---,0.00,VWS V14.01,2013-01-25 11:58:00,
2013-01-25 06:00:00,21.8,15.1,30.17,SSE,163,4.0,6.0,75,0.00,,---,0.00,VWS V14.01,2013-01-25 12:00:00,
2013-01-25 06:03:00,21.7,14.7,30.19,South,174,0.0,4.0,74,0.00,,---,0.00,VWS V14.01,2013-01-25 12:03:00,
2013-01-25 06:08:00,21.7,15.0,30.19,South,174,0.0,4.0,75,0.00,,---,0.00,VWS V14.01,2013-01-25 12:08:00,
2013-01-25 06:13:00,21.8,14.8,30.19,South,174,0.0,4.0,74,0.00,,---,0.00,VWS V14.01,2013-01-25 12:13:00,
2013-01-25 06:18:00,21.8,14.8,30.19,South,174,0.0,4.0,74,0.00,,---,0.00,VWS V14.01,2013-01-25 12:18:00,
2013-01-25 06:23:00,21.8,14.8,30.19,South,174,0.0,6.0,74,0.00,,---,0.00,VWS V14.01,2013-01-25 12:23:00,
2013-01-25 06:28:00,21.8,14.8,30.19,South,174,0.0,6.0,74,0.00,,---,0.00,VWS V14.01,2013-01-25 12:28:00,
2013-01-25 06:30:00,21.9,15.2,30.18,SSE,163,2.0,6.0,75,0.00,,---,0.00,VWS V14.01,2013-01-25 12:30:00,
2013-01-25 06:33:00,21.8,14.8,30.19,South,174,0.0,4.0,74,0.00,,---,0.00,VWS V14.01,2013-01-25 12:33:00,
2013-01-25 06:38:00,21.9,14.9,30.18,South,174,0.0,4.0,74,0.00,,---,0.00,VWS V14.01,2013-01-25 12:38:00,
2013-01-25 06:43:00,21.9,15.2,30.18,South,174,1.0,4.0,75,0.00,,---,0.00,VWS V14.01,2013-01-25 12:43:00,
2013-01-25 06:48:00,21.9,15.2,30.18,South,174,0.0,4.0,75,0.00,,---,0.00,VWS V14.01,2013-01-25 12:48:00,
2013-01-25 06:53:00,21.9,15.2,30.17,SSE,164,2.0,6.0,75,0.00,,---,0.00,VWS V14.01,2013-01-25 12:53:00,
2013-01-25 06:58:00,21.8,15.1,30.17,SSE,163,3.0,6.0,75,0.00,,---,0.00,VWS V14.01,2013-01-25 12:58:00,
2013-01-25 07:00:00,22.2,15.5,30.17,SSE,163,0.0,6.0,75,0.00,,---,0.00,VWS V14.01,2013-01-25 13:00:00,
2013-01-25 07:03:00,21.8,15.1,30.18,SSE,163,0.0,6.0,75,0.00,,---,0.00,VWS V14.01,2013-01-25 13:03:00,
2013-01-25 07:08:00,21.8,15.1,30.18,SSE,163,0.0,6.0,75,0.00,,---,0.00,VWS V14.01,2013-01-25 13:08:00,
2013-01-25 07:13:00,21.8,15.1,30.18,SSE,163,0.0,6.0,75,0.00,,---,0.00,VWS V14.01,2013-01-25 13:13:00,
2013-01-25 07:18:00,21.9,15.5,30.17,SSE,163,0.0,6.0,76,0.00,,---,0.00,VWS V14.01,2013-01-25 13:18:00,
2013-01-25 07:23:00,21.9,15.2,30.18,SSE,163,1.0,6.0,75,0.00,,---,0.00,VWS V14.01,2013-01-25 13:23:00,
2013-01-25 07:28:00,21.9,15.2,30.18,SSE,163,1.0,6.0,75,0.00,,---,0.00,VWS V14.01,2013-01-25 13:28:00,
2013-01-25 07:30:00,23.1,15.1,30.17,South,169,0.0,6.0,71,0.00,,---,0.00,VWS V14.01,2013-01-25 13:30:00,
2013-01-25 07:33:00,21.9,15.2,30.17,SSE,163,0.0,5.0,75,0.00,,---,0.00,VWS V14.01,2013-01-25 13:33:00,
2013-01-25 07:38:00,22.0,15.3,30.17,SSE,163,1.0,5.0,75,0.00,,---,0.00,VWS V14.01,2013-01-25 13:38:00,
2013-01-25 07:43:00,22.0,15.3,30.17,SSE,163,0.0,5.0,75,0.00,,---,0.00,VWS V14.01,2013-01-25 13:43:00,
2013-01-25 07:48:00,22.1,15.7,30.17,SSE,163,0.0,5.0,76,0.00,,---,0.00,VWS V14.01,2013-01-25 13:48:00,
2013-01-25 07:53:00,22.1,15.7,30.16,SSE,163,0.0,5.0,76,0.00,,---,0.00,VWS V14.01,2013-01-25 13:53:00,
2013-01-25 07:58:00,22.2,15.5,30.17,SSE,163,0.0,6.0,75,0.00,,---,0.00,VWS V14.01,2013-01-25 13:58:00,
2013-01-25 08:00:00,24.3,14.6,30.16,WSW,242,7.0,7.0,66,0.00,,---,0.00,VWS V14.01,2013-01-25 14:00:00,
2013-01-25 08:03:00,22.4,15.7,30.17,SSE,163,0.0,4.0,75,0.00,,---,0.00,VWS V14.01,2013-01-25 14:03:00,
2013-01-25 08:08:00,22.5,15.5,30.16,SSE,163,0.0,4.0,74,0.00,,---,0.00,VWS V14.01,2013-01-25 14:08:00,
2013-01-25 08:13:00,22.6,15.6,30.16,SSE,163,1.0,5.0,74,0.00,,---,0.00,VWS V14.01,2013-01-25 14:13:00,
2013-01-25 08:18:00,22.8,15.5,30.16,SSE,163,0.0,5.0,73,0.00,,---,0.00,VWS V14.01,2013-01-25 14:18:00,
2013-01-25 08:23:00,23.0,15.3,30.17,South,169,0.0,6.0,72,0.00,,---,0.00,VWS V14.01,2013-01-25 14:23:00,
2013-01-25 08:28:00,23.1,15.1,30.17,South,169,0.0,6.0,71,0.00,,---,0.00,VWS V14.01,2013-01-25 14:28:00,
2013-01-25 08:30:00,25.7,15.2,30.16,West,261,7.0,15.0,64,0.00,,---,0.00,VWS V14.01,2013-01-25 14:30:00,
2013-01-25 08:33:00,23.3,15.3,30.17,South,175,0.0,5.0,71,0.00,,---,0.00,VWS V14.01,2013-01-25 14:33:00,
2013-01-25 08:38:00,23.5,15.2,30.17,WSW,252,0.0,6.0,70,0.00,,---,0.00,VWS V14.01,2013-01-25 14:38:00,
2013-01-25 08:43:00,23.7,14.7,30.17,SSW,207,2.0,6.0,68,0.00,,---,0.00,VWS V14.01,2013-01-25 14:43:00,
2013-01-25 08:48:00,23.9,14.6,30.17,SSW,197,3.0,6.0,67,0.00,,---,0.00,VWS V14.01,2013-01-25 14:48:00,
2013-01-25 08:53:00,24.0,14.6,30.17,WSW,237,6.0,7.0,67,0.00,,---,0.00,VWS V14.01,2013-01-25 14:53:00,
2013-01-25 08:58:00,24.3,14.6,30.16,SSW,200,3.0,7.0,66,0.00,,---,0.00,VWS V14.01,2013-01-25 14:58:00,
2013-01-25 09:00:00,26.7,15.8,30.16,West,271,5.0,14.0,63,0.00,,---,0.00,VWS V14.01,2013-01-25 15:00:00,
2013-01-25 09:03:00,24.5,14.8,30.16,WSW,250,0.0,8.0,66,0.00,,---,0.00,VWS V14.01,2013-01-25 15:03:00,
2013-01-25 09:08:00,24.8,15.1,30.16,SSW,198,2.0,10.0,66,0.00,,---,0.00,VWS V14.01,2013-01-25 15:08:00,
2013-01-25 09:13:00,25.1,15.0,30.16,SSW,213,4.0,12.0,65,0.00,,---,0.00,VWS V14.01,2013-01-25 15:13:00,
2013-01-25 09:18:00,25.3,14.5,30.16,SW,234,8.0,15.0,63,0.00,,---,0.00,VWS V14.01,2013-01-25 15:18:00,
2013-01-25 09:23:00,25.4,14.9,30.16,SW,235,6.0,15.0,64,0.00,,---,0.00,VWS V14.01,2013-01-25 15:23:00,
2013-01-25 09:28:00,25.6,15.1,30.16,SW,220,4.0,15.0,64,0.00,,---,0.00,VWS V14.01,2013-01-25 15:28:00,
2013-01-25 09:30:00,27.2,16.3,30.15,West,271,9.0,13.0,63,0.00,,---,0.00,VWS V14.01,2013-01-25 15:30:00,
2013-01-25 09:33:00,25.9,15.4,30.16,SW,220,6.0,11.0,64,0.00,,---,0.00,VWS V14.01,2013-01-25 15:33:00,
2013-01-25 09:38:00,26.0,15.1,30.16,SW,223,7.0,12.0,63,0.00,,---,0.00,VWS V14.01,2013-01-25 15:38:00,
2013-01-25 09:43:00,26.2,15.3,30.16,WSW,250,1.0,12.0,63,0.00,,---,0.00,VWS V14.01,2013-01-25 15:43:00,
2013-01-25 09:48:00,26.3,15.4,30.16,West,264,6.0,12.0,63,0.00,,---,0.00,VWS V14.01,2013-01-25 15:48:00,
2013-01-25 09:53:00,26.3,15.4,30.16,West,263,7.0,12.0,63,0.00,,---,0.00,VWS V14.01,2013-01-25 15:53:00,
2013-01-25 09:58:00,26.7,15.8,30.16,West,269,9.0,13.0,63,0.00,,---,0.00,VWS V14.01,2013-01-25 15:58:00,
2013-01-25 10:00:00,27.5,16.6,30.15,WNW,296,5.0,14.0,63,0.00,,---,0.00,VWS V14.01,2013-01-25 16:00:00,
2013-01-25 10:03:00,26.9,16.0,30.16,WSW,248,7.0,10.0,63,0.00,,---,0.00,VWS V14.01,2013-01-25 16:03:00,
2013-01-25 10:08:00,27.1,16.2,30.16,West,262,8.0,11.0,63,0.00,,---,0.00,VWS V14.01,2013-01-25 16:08:00,
2013-01-25 10:13:00,27.1,16.2,30.16,West,267,9.0,11.0,63,0.00,,---,0.00,VWS V14.01,2013-01-25 16:13:00,
2013-01-25 10:18:00,27.0,16.5,30.16,West,269,7.0,11.0,64,0.00,,---,0.00,VWS V14.01,2013-01-25 16:18:00,
2013-01-25 10:23:00,27.0,16.5,30.15,WNW,284,7.0,13.0,64,0.00,,---,0.00,VWS V14.01,2013-01-25 16:23:00,
2013-01-25 10:28:00,27.2,16.3,30.15,West,273,8.0,13.0,63,0.00,,---,0.00,VWS V14.01,2013-01-25 16:28:00,
2013-01-25 10:30:00,28.8,17.4,30.12,West,268,7.0,14.0,62,0.00,,---,0.00,VWS V14.01,2013-01-25 16:30:00,
2013-01-25 10:33:00,27.2,16.3,30.15,WNW,283,8.0,13.0,63,0.00,,---,0.00,VWS V14.01,2013-01-25 16:33:00,
2013-01-25 10:38:00,27.2,16.3,30.15,West,279,4.0,13.0,63,0.00,,---,0.00,VWS V14.01,2013-01-25 16:38:00,
2013-01-25 10:43:00,27.2,16.3,30.15,West,268,7.0,13.0,63,0.00,,---,0.00,VWS V14.01,2013-01-25 16:43:00,
2013-01-25 10:48:00,27.4,16.5,30.15,West,274,6.0,13.0,63,0.00,,---,0.00,VWS V14.01,2013-01-25 16:48:00,
2013-01-25 10:53:00,27.4,16.5,30.14,WSW,237,4.0,13.0,63,0.00,,---,0.00,VWS V14.01,2013-01-25 16:53:00,
2013-01-25 10:58:00,27.5,16.6,30.15,WNW,283,1.0,14.0,63,0.00,,---,0.00,VWS V14.01,2013-01-25 16:58:00,
2013-01-25 11:00:00,30.1,17.9,30.11,WSW,257,4.0,13.0,60,0.00,,---,0.00,VWS V14.01,2013-01-25 17:00:00,
2013-01-25 11:03:00,27.6,16.3,30.14,WSW,254,5.0,12.0,62,0.00,,---,0.00,VWS V14.01,2013-01-25 17:03:00,
2013-01-25 11:08:00,27.7,16.8,30.13,WNW,288,6.0,12.0,63,0.00,,---,0.00,VWS V14.01,2013-01-25 17:08:00,
2013-01-25 11:13:00,27.8,16.9,30.13,West,266,1.0,12.0,63,0.00,,---,0.00,VWS V14.01,2013-01-25 17:13:00,
2013-01-25 11:18:00,28.1,17.1,30.13,West,269,7.0,12.0,63,0.00,,---,0.00,VWS V14.01,2013-01-25 17:18:00,
2013-01-25 11:23:00,28.6,17.6,30.12,West,265,6.0,12.0,63,0.00,,---,0.00,VWS V14.01,2013-01-25 17:23:00,
2013-01-25 11:28:00,28.8,17.4,30.12,West,279,5.0,12.0,62,0.00,,---,0.00,VWS V14.01,2013-01-25 17:28:00,
2013-01-25 11:30:00,31.0,18.0,30.09,NW,305,5.0,14.0,58,0.00,,---,0.00,VWS V14.01,2013-01-25 17:30:00,
2013-01-25 11:33:00,29.0,17.6,30.12,SSW,207,7.0,9.0,62,0.00,,---,0.00,VWS V14.01,2013-01-25 17:33:00,
2013-01-25 11:38:00,29.2,17.4,30.11,SW,234,6.0,13.0,61,0.00,,---,0.00,VWS V14.01,2013-01-25 17:38:00,
2013-01-25 11:43:00,29.3,17.9,30.11,SW,236,6.0,13.0,62,0.00,,---,0.00,VWS V14.01,2013-01-25 17:43:00,
2013-01-25 11:48:00,29.6,17.8,30.11,West,275,6.0,13.0,61,0.00,,---,0.00,VWS V14.01,2013-01-25 17:48:00,
2013-01-25 11:53:00,29.9,18.1,30.11,WNW,293,4.0,13.0,61,0.00,,---,0.00,VWS V14.01,2013-01-25 17:53:00,
2013-01-25 11:58:00,30.0,17.8,30.11,West,277,6.0,13.0,60,0.00,,---,0.00,VWS V14.01,2013-01-25 17:58:00,
2013-01-25 12:00:00,32.2,18.7,30.08,WSW,250,7.0,14.0,57,0.00,,---,0.00,VWS V14.01,2013-01-25 18:00:00,
2013-01-25 12:03:00,30.3,18.1,30.11,West,260,7.0,12.0,60,0.00,,---,0.00,VWS V14.01,2013-01-25 18:03:00,
2013-01-25 12:08:00,30.2,18.0,30.10,SW,218,8.0,14.0,60,0.00,,---,0.00,VWS V14.01,2013-01-25 18:08:00,
2013-01-25 12:13:00,30.4,18.2,30.10,WSW,242,5.0,14.0,60,0.00,,---,0.00,VWS V14.01,2013-01-25 18:13:00,
2013-01-25 12:18:00,30.7,18.1,30.10,West,264,8.0,14.0,59,0.00,,---,0.00,VWS V14.01,2013-01-25 18:18:00,
2013-01-25 12:23:00,30.9,18.3,30.10,West,261,8.0,14.0,59,0.00,,---,0.00,VWS V14.01,2013-01-25 18:23:00,
2013-01-25 12:28:00,31.0,18.0,30.09,WSW,257,6.0,14.0,58,0.00,,---,0.00,VWS V14.01,2013-01-25 18:28:00,
2013-01-25 12:30:00,33.2,19.2,30.07,West,265,9.0,16.0,56,0.00,,---,0.00,VWS V14.01,2013-01-25 18:30:00,
2013-01-25 12:33:00,31.2,18.5,30.09,West,279,2.0,12.0,59,0.00,,---,0.00,VWS V14.01,2013-01-25 18:33:00,
2013-01-25 12:38:00,31.4,18.7,30.08,West,267,8.0,12.0,59,0.00,,---,0.00,VWS V14.01,2013-01-25 18:38:00,
2013-01-25 12:43:00,31.8,18.7,30.08,SW,214,13.0,14.0,58,0.00,,---,0.00,VWS V14.01,2013-01-25 18:43:00,
2013-01-25 12:48:00,32.2,18.7,30.08,West,269,1.0,14.0,57,0.00,,---,0.00,VWS V14.01,2013-01-25 18:48:00,
2013-01-25 12:53:00,32.1,18.6,30.08,West,279,7.0,14.0,57,0.00,,---,0.00,VWS V14.01,2013-01-25 18:53:00,
2013-01-25 12:58:00,32.2,18.7,30.08,West,278,8.0,14.0,57,0.00,,---,0.00,VWS V14.01,2013-01-25 18:58:00,
2013-01-25 13:00:00,34.4,19.0,30.08,NW,322,5.0,19.0,53,0.00,,---,0.00,VWS V14.01,2013-01-25 19:00:00,
2013-01-25 13:03:00,32.6,19.1,30.08,WNW,290,8.0,11.0,57,0.00,,---,0.00,VWS V14.01,2013-01-25 19:03:00,
2013-01-25 13:08:00,32.8,18.8,30.08,WSW,257,9.0,12.0,56,0.00,,---,0.00,VWS V14.01,2013-01-25 19:08:00,
2013-01-25 13:13:00,32.7,18.8,30.08,WNW,282,9.0,12.0,56,0.00,,---,0.00,VWS V14.01,2013-01-25 19:13:00,
2013-01-25 13:18:00,32.8,18.8,30.08,SW,234,6.0,13.0,56,0.00,,---,0.00,VWS V14.01,2013-01-25 19:18:00,
2013-01-25 13:23:00,32.9,18.5,30.07,WNW,284,5.0,14.0,55,0.00,,---,0.00,VWS V14.01,2013-01-25 19:23:00,
2013-01-25 13:28:00,33.2,19.2,30.07,WSW,257,5.0,14.0,56,0.00,,---,0.00,VWS V14.01,2013-01-25 19:28:00,
2013-01-25 13:30:00,35.2,18.9,30.07,West,277,8.0,18.0,51,0.00,,---,0.00,VWS V14.01,2013-01-25 19:30:00,
2013-01-25 13:33:00,33.4,19.0,30.07,North,350,3.0,13.0,55,0.00,,---,0.00,VWS V14.01,2013-01-25 19:33:00,
2013-01-25 13:38:00,33.6,18.7,30.08,West,269,10.0,13.0,54,0.00,,---,0.00,VWS V14.01,2013-01-25 19:38:00,
2013-01-25 13:43:00,33.6,18.7,30.07,West,267,8.0,14.0,54,0.00,,---,0.00,VWS V14.01,2013-01-25 19:43:00,
2013-01-25 13:48:00,33.8,18.9,30.08,West,280,6.0,15.0,54,0.00,,---,0.00,VWS V14.01,2013-01-25 19:48:00,
2013-01-25 13:53:00,34.1,19.2,30.08,WSW,242,8.0,15.0,54,0.00,,---,0.00,VWS V14.01,2013-01-25 19:53:00,
2013-01-25 13:58:00,34.4,19.0,30.08,West,269,9.0,19.0,53,0.00,,---,0.00,VWS V14.01,2013-01-25 19:58:00,
2013-01-25 14:00:00,36.1,19.3,30.06,WNW,293,7.0,21.0,50,0.00,,---,0.00,VWS V14.01,2013-01-25 20:00:00,
2013-01-25 14:03:00,34.4,18.6,30.08,SW,227,11.0,16.0,52,0.00,,---,0.00,VWS V14.01,2013-01-25 20:03:00,
2013-01-25 14:08:00,34.8,19.0,30.07,WSW,241,8.0,18.0,52,0.00,,---,0.00,VWS V14.01,2013-01-25 20:08:00,
2013-01-25 14:13:00,34.8,19.0,30.07,WNW,288,6.0,18.0,52,0.00,,---,0.00,VWS V14.01,2013-01-25 20:13:00,
2013-01-25 14:18:00,34.9,19.1,30.07,NNW,327,6.0,18.0,52,0.00,,---,0.00,VWS V14.01,2013-01-25 20:18:00,
2013-01-25 14:23:00,35.2,19.4,30.07,West,274,8.0,18.0,52,0.00,,---,0.00,VWS V14.01,2013-01-25 20:23:00,
2013-01-25 14:28:00,35.2,18.9,30.07,West,274,7.0,18.0,51,0.00,,---,0.00,VWS V14.01,2013-01-25 20:28:00,
2013-01-25 14:30:00,36.8,19.5,30.06,West,265,13.0,21.0,49,0.00,,---,0.00,VWS V14.01,2013-01-25 20:30:00,
2013-01-25 14:33:00,35.4,19.1,30.06,WSW,248,7.0,13.0,51,0.00,,---,0.00,VWS V14.01,2013-01-25 20:33:00,
2013-01-25 14:38:00,35.6,19.3,30.06,West,264,9.0,13.0,51,0.00,,---,0.00,VWS V14.01,2013-01-25 20:38:00,
2013-01-25 14:43:00,35.7,18.9,30.06,WSW,252,10.0,13.0,50,0.00,,---,0.00,VWS V14.01,2013-01-25 20:43:00,
2013-01-25 14:48:00,35.9,19.1,30.06,West,269,5.0,21.0,50,0.00,,---,0.00,VWS V14.01,2013-01-25 20:48:00,
2013-01-25 14:53:00,36.0,19.2,30.06,SW,221,8.0,21.0,50,0.00,,---,0.00,VWS V14.01,2013-01-25 20:53:00,
2013-01-25 14:58:00,36.1,19.3,30.06,West,263,8.0,21.0,50,0.00,,---,0.00,VWS V14.01,2013-01-25 20:58:00,
2013-01-25 15:00:00,37.0,19.6,30.07,West,260,10.0,15.0,49,0.00,,---,0.00,VWS V14.01,2013-01-25 21:00:00,
2013-01-25 15:03:00,36.2,19.4,30.06,West,278,8.0,18.0,50,0.00,,---,0.00,VWS V14.01,2013-01-25 21:03:00,
2013-01-25 15:08:00,36.2,19.4,30.06,West,264,5.0,18.0,50,0.00,,---,0.00,VWS V14.01,2013-01-25 21:08:00,
2013-01-25 15:13:00,36.4,19.5,30.06,West,272,13.0,18.0,50,0.00,,---,0.00,VWS V14.01,2013-01-25 21:13:00,
2013-01-25 15:18:00,36.5,19.6,30.06,West,271,9.0,21.0,50,0.00,,---,0.00,VWS V14.01,2013-01-25 21:18:00,
2013-01-25 15:23:00,36.7,19.8,30.06,West,266,5.0,21.0,50,0.00,,---,0.00,VWS V14.01,2013-01-25 21:23:00,
2013-01-25 15:28:00,36.8,19.9,30.06,West,261,9.0,21.0,50,0.00,,---,0.00,VWS V14.01,2013-01-25 21:28:00,
2013-01-25 15:30:00,36.9,20.0,30.07,WSW,248,8.0,14.0,50,0.00,,---,0.00,VWS V14.01,2013-01-25 21:30:00,
2013-01-25 15:33:00,36.7,19.4,30.06,WSW,244,8.0,13.0,49,0.00,,---,0.00,VWS V14.01,2013-01-25 21:33:00,
2013-01-25 15:38:00,36.8,19.5,30.06,WNW,300,5.0,13.0,49,0.00,,---,0.00,VWS V14.01,2013-01-25 21:38:00,
2013-01-25 15:43:00,36.9,19.5,30.06,WNW,292,4.0,13.0,49,0.00,,---,0.00,VWS V14.01,2013-01-25 21:43:00,
2013-01-25 15:48:00,36.9,19.5,30.06,West,275,4.0,13.0,49,0.00,,---,0.00,VWS V14.01,2013-01-25 21:48:00,
2013-01-25 15:53:00,37.0,19.6,30.06,West,281,6.0,15.0,49,0.00,,---,0.00,VWS V14.01,2013-01-25 21:53:00,
2013-01-25 15:58:00,37.0,19.6,30.07,NW,311,4.0,15.0,49,0.00,,---,0.00,VWS V14.01,2013-01-25 21:58:00,
2013-01-25 16:00:00,36.4,20.5,30.08,West,263,4.0,12.0,52,0.00,,---,0.00,VWS V14.01,2013-01-25 22:00:00,
2013-01-25 16:03:00,37.0,19.6,30.07,WSW,244,9.0,13.0,49,0.00,,---,0.00,VWS V14.01,2013-01-25 22:03:00,
2013-01-25 16:08:00,37.0,19.6,30.07,SW,227,8.0,13.0,49,0.00,,---,0.00,VWS V14.01,2013-01-25 22:08:00,
2013-01-25 16:13:00,37.1,19.7,30.07,WSW,258,9.0,13.0,49,0.00,,---,0.00,VWS V14.01,2013-01-25 22:13:00,
2013-01-25 16:18:00,37.0,19.6,30.07,WSW,255,8.0,14.0,49,0.00,,---,0.00,VWS V14.01,2013-01-25 22:18:00,
2013-01-25 16:23:00,37.0,20.1,30.07,SSW,212,6.0,14.0,50,0.00,,---,0.00,VWS V14.01,2013-01-25 22:23:00,
2013-01-25 16:28:00,36.9,20.0,30.07,WNW,298,6.0,14.0,50,0.00,,---,0.00,VWS V14.01,2013-01-25 22:28:00,
2013-01-25 16:30:00,35.1,20.6,30.08,WNW,287,4.0,10.0,55,0.00,,---,0.00,VWS V14.01,2013-01-25 22:30:00,
2013-01-25 16:33:00,36.8,19.9,30.07,West,267,7.0,8.0,50,0.00,,---,0.00,VWS V14.01,2013-01-25 22:33:00,
2013-01-25 16:38:00,36.7,20.3,30.07,West,270,4.0,10.0,51,0.00,,---,0.00,VWS V14.01,2013-01-25 22:38:00,
2013-01-25 16:43:00,36.6,20.2,30.07,WNW,286,6.0,12.0,51,0.00,,---,0.00,VWS V14.01,2013-01-25 22:43:00,
2013-01-25 16:48:00,36.6,20.2,30.07,West,273,8.0,12.0,51,0.00,,---,0.00,VWS V14.01,2013-01-25 22:48:00,
2013-01-25 16:53:00,36.5,20.6,30.07,West,277,4.0,12.0,52,0.00,,---,0.00,VWS V14.01,2013-01-25 22:53:00,
2013-01-25 16:58:00,36.4,20.5,30.07,West,273,7.0,12.0,52,0.00,,---,0.00,VWS V14.01,2013-01-25 22:58:00,
2013-01-25 17:00:00,34.5,21.3,30.10,WNW,300,6.0,16.0,58,0.00,,---,0.00,VWS V14.01,2013-01-25 23:00:00,
2013-01-25 17:03:00,36.2,20.3,30.08,West,280,9.0,10.0,52,0.00,,---,0.00,VWS V14.01,2013-01-25 23:03:00,
2013-01-25 17:08:00,36.0,20.5,30.08,West,262,1.0,10.0,53,0.00,,---,0.00,VWS V14.01,2013-01-25 23:08:00,
2013-01-25 17:13:00,35.8,20.4,30.08,WNW,284,4.0,10.0,53,0.00,,---,0.00,VWS V14.01,2013-01-25 23:13:00,
2013-01-25 17:18:00,35.6,20.6,30.08,West,279,6.0,10.0,54,0.00,,---,0.00,VWS V14.01,2013-01-25 23:18:00,
2013-01-25 17:23:00,35.3,20.3,30.08,WNW,296,4.0,10.0,54,0.00,,---,0.00,VWS V14.01,2013-01-25 23:23:00,
2013-01-25 17:28:00,35.1,20.6,30.08,WNW,292,3.0,10.0,55,0.00,,---,0.00,VWS V14.01,2013-01-25 23:28:00,
2013-01-25 17:30:00,33.5,21.1,30.12,WNW,288,13.0,15.0,60,0.00,,---,0.00,VWS V14.01,2013-01-25 23:30:00,
2013-01-25 17:33:00,34.9,20.8,30.09,West,281,6.0,7.0,56,0.00,,---,0.00,VWS V14.01,2013-01-25 23:33:00,
2013-01-25 17:38:00,34.7,20.6,30.09,West,272,6.0,9.0,56,0.00,,---,0.00,VWS V14.01,2013-01-25 23:38:00,
2013-01-25 17:43:00,34.5,20.9,30.09,WNW,284,8.0,10.0,57,0.00,,---,0.00,VWS V14.01,2013-01-25 23:43:00,
2013-01-25 17:48:00,34.4,21.2,30.09,WNW,291,13.0,13.0,58,0.00,,---,0.00,VWS V14.01,2013-01-25 23:48:00,
2013-01-25 17:53:00,34.4,21.2,30.10,WNW,295,7.0,16.0,58,0.00,,---,0.00,VWS V14.01,2013-01-25 23:53:00,
2013-01-25 17:58:00,34.5,21.3,30.10,WNW,292,7.0,16.0,58,0.00,,---,0.00,VWS V14.01,2013-01-25 23:58:00,
2013-01-25 18:00:00,32.4,21.6,30.13,WNW,284,11.0,18.0,64,0.00,,---,0.00,VWS V14.01,2013-01-26 00:00:00,
2013-01-25 18:03:00,34.6,21.4,30.11,NW,324,6.0,11.0,58,0.00,,---,0.00,VWS V14.01,2013-01-26 00:03:00,
2013-01-25 18:08:00,34.4,21.2,30.11,NW,321,6.0,15.0,58,0.00,,---,0.00,VWS V14.01,2013-01-26 00:08:00,
2013-01-25 18:13:00,34.1,21.3,30.12,WNW,289,8.0,15.0,59,0.00,,---,0.00,VWS V14.01,2013-01-26 00:13:00,
2013-01-25 18:18:00,33.9,21.1,30.12,WNW,288,8.0,15.0,59,0.00,,---,0.00,VWS V14.01,2013-01-26 00:18:00,
2013-01-25 18:23:00,33.7,20.9,30.12,WNW,286,6.0,15.0,59,0.00,,---,0.00,VWS V14.01,2013-01-26 00:23:00,
2013-01-25 18:28:00,33.5,21.1,30.12,WNW,297,1.0,15.0,60,0.00,,---,0.00,VWS V14.01,2013-01-26 00:28:00,
2013-01-25 18:30:00,31.2,21.5,30.14,WNW,294,5.0,15.0,67,0.00,,---,0.00,VWS V14.01,2013-01-26 00:30:00,
2013-01-25 18:33:00,33.3,21.3,30.12,West,281,8.0,13.0,61,0.00,,---,0.00,VWS V14.01,2013-01-26 00:33:00,
2013-01-25 18:38:00,33.1,21.1,30.12,WNW,302,9.0,13.0,61,0.00,,---,0.00,VWS V14.01,2013-01-26 00:38:00,
2013-01-25 18:43:00,33.0,21.4,30.13,WNW,286,12.0,13.0,62,0.00,,---,0.00,VWS V14.01,2013-01-26 00:43:00,
2013-01-25 18:48:00,32.8,21.6,30.13,WNW,292,7.0,18.0,63,0.00,,---,0.00,VWS V14.01,2013-01-26 00:48:00,
2013-01-25 18:53:00,32.6,21.4,30.13,West,273,9.0,18.0,63,0.00,,---,0.00,VWS V14.01,2013-01-26 00:53:00,
2013-01-25 18:58:00,32.4,21.6,30.13,WNW,292,5.0,18.0,64,0.00,,---,0.00,VWS V14.01,2013-01-26 00:58:00,
2013-01-25 19:00:00,30.1,21.5,30.14,West,273,10.0,11.0,70,0.00,,---,0.00,VWS V14.01,2013-01-26 01:00:00,
2013-01-25 19:03:00,32.3,21.9,30.13,WNW,290,6.0,14.0,65,0.00,,---,0.00,VWS V14.01,2013-01-26 01:03:00,
2013-01-25 19:08:00,32.2,21.8,30.13,WNW,284,10.0,14.0,65,0.00,,---,0.00,VWS V14.01,2013-01-26 01:08:00,
2013-01-25 19:13:00,32.0,21.6,30.14,West,273,13.0,15.0,65,0.00,,---,0.00,VWS V14.01,2013-01-26 01:13:00,
2013-01-25 19:18:00,31.8,21.8,30.13,West,267,7.0,15.0,66,0.00,,---,0.00,VWS V14.01,2013-01-26 01:18:00,
2013-01-25 19:23:00,31.5,21.8,30.13,NW,304,6.0,15.0,67,0.00,,---,0.00,VWS V14.01,2013-01-26 01:23:00,
2013-01-25 19:28:00,31.3,21.6,30.14,NW,304,5.0,15.0,67,0.00,,---,0.00,VWS V14.01,2013-01-26 01:28:00,
2013-01-25 19:30:00,29.4,21.2,30.14,WNW,290,4.0,10.0,71,0.00,,---,0.00,VWS V14.01,2013-01-26 01:30:00,
2013-01-25 19:33:00,31.0,21.3,30.14,WNW,294,5.0,8.0,67,0.00,,---,0.00,VWS V14.01,2013-01-26 01:33:00,
2013-01-25 19:38:00,30.8,21.5,30.14,WNW,291,1.0,8.0,68,0.00,,---,0.00,VWS V14.01,2013-01-26 01:38:00,
2013-01-25 19:43:00,30.5,21.6,30.14,WNW,292,5.0,8.0,69,0.00,,---,0.00,VWS V14.01,2013-01-26 01:43:00,
2013-01-25 19:48:00,30.3,21.4,30.14,WNW,294,2.0,8.0,69,0.00,,---,0.00,VWS V14.01,2013-01-26 01:48:00,
2013-01-25 19:53:00,30.1,21.5,30.14,West,281,5.0,8.0,70,0.00,,---,0.00,VWS V14.01,2013-01-26 01:53:00,
2013-01-25 19:58:00,30.1,21.5,30.14,NW,307,4.0,8.0,70,0.00,,---,0.00,VWS V14.01,2013-01-26 01:58:00,
2013-01-25 20:00:00,28.7,21.2,30.16,WNW,299,4.0,12.0,73,0.00,,---,0.00,VWS V14.01,2013-01-26 02:00:00,
2013-01-25 20:03:00,30.1,21.9,30.14,WNW,302,4.0,10.0,71,0.00,,---,0.00,VWS V14.01,2013-01-26 02:03:00,
2013-01-25 20:08:00,30.0,21.8,30.15,WNW,297,3.0,10.0,71,0.00,,---,0.00,VWS V14.01,2013-01-26 02:08:00,
2013-01-25 20:13:00,29.9,21.7,30.14,WNW,296,4.0,10.0,71,0.00,,---,0.00,VWS V14.01,2013-01-26 02:13:00,
2013-01-25 20:18:00,29.8,21.6,30.14,WNW,294,5.0,10.0,71,0.00,,---,0.00,VWS V14.01,2013-01-26 02:18:00,
2013-01-25 20:23:00,29.7,21.5,30.14,NW,304,2.0,10.0,71,0.00,,---,0.00,VWS V14.01,2013-01-26 02:23:00,
2013-01-25 20:28:00,29.5,21.3,30.14,WNW,287,6.0,10.0,71,0.00,,---,0.00,VWS V14.01,2013-01-26 02:28:00,
2013-01-25 20:30:00,27.1,18.0,30.18,NNW,329,6.0,16.0,68,0.00,,---,0.00,VWS V14.01,2013-01-26 02:30:00,
2013-01-25 20:33:00,29.3,21.4,30.15,WNW,292,4.0,7.0,72,0.00,,---,0.00,VWS V14.01,2013-01-26 02:33:00,
2013-01-25 20:38:00,29.2,21.3,30.15,WNW,288,2.0,8.0,72,0.00,,---,0.00,VWS V14.01,2013-01-26 02:38:00,
2013-01-25 20:43:00,29.0,21.4,30.15,WNW,293,5.0,8.0,73,0.00,,---,0.00,VWS V14.01,2013-01-26 02:43:00,
2013-01-25 20:48:00,28.9,21.4,30.16,WNW,292,3.0,8.0,73,0.00,,---,0.00,VWS V14.01,2013-01-26 02:48:00,
2013-01-25 20:53:00,28.8,21.2,30.16,NW,306,3.0,11.0,73,0.00,,---,0.00,VWS V14.01,2013-01-26 02:53:00,
2013-01-25 20:58:00,28.7,21.1,30.16,WNW,282,6.0,12.0,73,0.00,,---,0.00,VWS V14.01,2013-01-26 02:58:00,
2013-01-25 21:00:00,25.4,16.3,30.21,WNW,299,1.0,14.0,68,0.00,,---,0.00,VWS V14.01,2013-01-26 03:00:00,
2013-01-25 21:03:00,28.8,21.2,30.17,NNW,332,7.0,9.0,73,0.00,,---,0.00,VWS V14.01,2013-01-26 03:03:00,
2013-01-25 21:08:00,28.7,21.1,30.17,WNW,303,3.0,9.0,73,0.00,,---,0.00,VWS V14.01,2013-01-26 03:08:00,
2013-01-25 21:13:00,28.4,21.2,30.17,NW,314,7.0,11.0,74,0.00,,---,0.00,VWS V14.01,2013-01-26 03:13:00,
2013-01-25 21:18:00,28.2,21.0,30.18,NNW,342,6.0,11.0,74,0.00,,---,0.00,VWS V14.01,2013-01-26 03:18:00,
2013-01-25 21:23:00,27.9,20.4,30.18,NNW,344,12.0,12.0,73,0.00,,---,0.00,VWS V14.01,2013-01-26 03:23:00,
2013-01-25 21:28:00,27.2,18.4,30.18,NNW,330,7.0,16.0,69,0.00,,---,0.00,VWS V14.01,2013-01-26 03:28:00,
2013-01-25 21:30:00,24.0,14.0,30.22,NW,316,8.0,13.0,65,0.00,,---,0.00,VWS V14.01,2013-01-26 03:30:00,
2013-01-25 21:33:00,26.8,17.3,30.19,WNW,287,6.0,14.0,67,0.00,,---,0.00,VWS V14.01,2013-01-26 03:33:00,
2013-01-25 21:38:00,26.5,16.7,30.20,NW,326,5.0,14.0,66,0.00,,---,0.00,VWS V14.01,2013-01-26 03:38:00,
2013-01-25 21:43:00,26.2,16.8,30.20,NW,311,7.0,14.0,67,0.00,,---,0.00,VWS V14.01,2013-01-26 03:43:00,
2013-01-25 21:48:00,26.0,16.9,30.20,WNW,292,6.0,14.0,68,0.00,,---,0.00,VWS V14.01,2013-01-26 03:48:00,
2013-01-25 21:53:00,25.7,17.0,30.20,WNW,298,8.0,14.0,69,0.00,,---,0.00,VWS V14.01,2013-01-26 03:53:00,
2013-01-25 21:58:00,25.4,16.3,30.21,NNW,330,6.0,14.0,68,0.00,,---,0.00,VWS V14.01,2013-01-26 03:58:00,
2013-01-25 22:00:00,22.7,10.9,30.24,NW,313,5.0,15.0,60,0.00,,---,0.00,VWS V14.01,2013-01-26 04:00:00,
2013-01-25 22:03:00,25.2,16.1,30.21,WNW,293,7.0,10.0,68,0.00,,---,0.00,VWS V14.01,2013-01-26 04:03:00,
2013-01-25 22:08:00,24.9,15.2,30.21,West,279,5.0,11.0,66,0.00,,---,0.00,VWS V14.01,2013-01-26 04:08:00,
2013-01-25 22:13:00,24.6,14.9,30.21,WNW,289,6.0,11.0,66,0.00,,---,0.00,VWS V14.01,2013-01-26 04:13:00,
2013-01-25 22:18:00,24.4,14.3,30.22,WNW,287,7.0,12.0,65,0.00,,---,0.00,VWS V14.01,2013-01-26 04:18:00,
2013-01-25 22:23:00,24.3,14.2,30.22,NW,312,7.0,12.0,65,0.00,,---,0.00,VWS V14.01,2013-01-26 04:23:00,
2013-01-25 22:28:00,24.1,14.1,30.22,WSW,244,6.0,12.0,65,0.00,,---,0.00,VWS V14.01,2013-01-26 04:28:00,
2013-01-25 22:30:00,21.1,10.1,30.25,NW,306,4.0,13.0,62,0.00,,---,0.00,VWS V14.01,2013-01-26 04:30:00,
2013-01-25 22:33:00,23.9,13.5,30.23,NW,313,6.0,11.0,64,0.00,,---,0.00,VWS V14.01,2013-01-26 04:33:00,
2013-01-25 22:38:00,23.8,12.7,30.23,NW,312,9.0,15.0,62,0.00,,---,0.00,VWS V14.01,2013-01-26 04:38:00,
2013-01-25 22:43:00,23.6,11.8,30.23,NW,326,8.0,15.0,60,0.00,,---,0.00,VWS V14.01,2013-01-26 04:43:00,
2013-01-25 22:48:00,23.4,11.6,30.24,NW,317,7.0,15.0,60,0.00,,---,0.00,VWS V14.01,2013-01-26 04:48:00,
2013-01-25 22:53:00,23.1,11.7,30.24,NW,315,3.0,15.0,61,0.00,,---,0.00,VWS V14.01,2013-01-26 04:53:00,
2013-01-25 22:58:00,22.8,11.0,30.24,NNW,328,8.0,15.0,60,0.00,,---,0.00,VWS V14.01,2013-01-26 04:58:00,
2013-01-25 23:00:00,22.6,10.8,30.24,NW,324,10.0,10.0,60,0.00,,---,0.00,VWS V14.01,2013-01-26 05:00:00,
2013-01-25 23:01:00,22.6,10.4,30.24,WSW,242,7.0,13.0,59,0.00,,---,0.00,VWS V14.01,2013-01-26 05:01:00,
2013-01-25 23:06:00,22.4,10.6,30.25,NNW,333,6.0,13.0,60,0.00,,---,0.00,VWS V14.01,2013-01-26 05:06:00,
2013-01-25 23:11:00,22.1,10.4,30.25,NNW,331,8.0,13.0,60,0.00,,---,0.00,VWS V14.01,2013-01-26 05:11:00,
2013-01-25 23:16:00,21.8,10.1,30.25,NW,307,2.0,13.0,60,0.00,,---,0.00,VWS V14.01,2013-01-26 05:16:00,
2013-01-25 23:21:00,21.6,9.9,30.25,WNW,298,4.0,13.0,60,0.00,,---,0.00,VWS V14.01,2013-01-26 05:21:00,
2013-01-25 23:26:00,21.3,10.0,30.26,WNW,302,9.0,13.0,61,0.00,,---,0.00,VWS V14.01,2013-01-26 05:26:00,
2013-01-25 23:30:00,18.9,9.1,30.27,NW,309,7.0,12.0,65,0.00,,---,0.00,VWS V14.01,2013-01-26 05:30:00,
2013-01-25 23:31:00,21.0,10.0,30.26,NW,304,5.0,12.0,62,0.00,,---,0.00,VWS V14.01,2013-01-26 05:31:00,
2013-01-25 23:36:00,20.7,9.8,30.26,NNW,337,6.0,12.0,62,0.00,,---,0.00,VWS V14.01,2013-01-26 05:36:00,
2013-01-25 23:41:00,20.5,9.6,30.26,WNW,302,6.0,12.0,62,0.00,,---,0.00,VWS V14.01,2013-01-26 05:41:00,
2013-01-25 23:46:00,20.3,9.4,30.26,NNW,327,7.0,12.0,62,0.00,,---,0.00,VWS V14.01,2013-01-26 05:46:00,
2013-01-25 23:51:00,20.0,9.1,30.26,NNW,331,6.0,13.0,62,0.00,,---,0.00,VWS V14.01,2013-01-26 05:51:00,
2013-01-25 23:55:00,19.8,9.3,30.26,West,274,7.0,13.0,63,0.00,,---,0.00,VWS V14.01,2013-01-26 05:55:00,